Overview Statistics Trail Chart Weather Telemetry Raw packets
 

This is the latest recevied weather packets stored in our database for station/object N5JXS. If no packets are shown the sender has not sent any weather packets the latest 10 day(s).

<< 58 59 60 61 62 63 64 >>
Time Temp. Humidity Pressure Rain* Wind** Luminosity Snow
1788223789 21.67° C 45% 1025.8 hPa 0 mm - 24 W/m² -
1788223488 21.67° C 44% 1025.7 hPa 0 mm - 30 W/m² -
1788223183 21.67° C 43% 1025.8 hPa 0 mm - 30 W/m² -
1788222878 22.22° C 43% 1026.2 hPa 0 mm - 40 W/m² -
1788222577 22.22° C 42% 1026.1 hPa 0 mm - 54 W/m² -
1788222276 22.78° C 42% 1026 hPa 0 mm - 64 W/m² -
1788221971 22.78° C 40% 1026.1 hPa 0 mm - 65 W/m² -
1788221666 23.33° C 39% 1025.8 hPa 0 mm - 68 W/m² -
1788221361 23.33° C 37% 1025.8 hPa 0 mm - 74 W/m² -
1788221056 23.89° C 36% 1026 hPa 0 mm - 72 W/m² -
1788220755 23.89° C 37% 1026.1 hPa 0 mm - 79 W/m² -
1788220452 23.89° C 36% 1026 hPa 0 mm - 96 W/m² -
1788220152 23.89° C 36% 1026.1 hPa 0 mm - 123 W/m² -
1788219846 23.89° C 36% 1026.3 hPa 0 mm - 92 W/m² -
1788219542 23.89° C 36% 1026 hPa 0 mm - 88 W/m² -
1788219236 23.89° C 36% 1026.1 hPa 0 mm - 89 W/m² -
1788218932 23.89° C 36% 1026.2 hPa 0 mm - 95 W/m² -
1788218628 23.89° C 36% 1026.2 hPa 0 mm - 110 W/m² -
1788218324 23.89° C 36% 1026.2 hPa 0 mm - 124 W/m² -
1788218020 24.44° C 35% 1026.5 hPa 0 mm - 113 W/m² -
1788217715 24.44° C 35% 1026.2 hPa 0 mm - 121 W/m² -
1788217409 24.44° C 36% 1026.1 hPa 0 mm - 124 W/m² -
1788217104 24.44° C 35% 1026.3 hPa 0 mm - 130 W/m² -
1788216799 24.44° C 35% 1026.5 hPa 0 mm - 128 W/m² -
1788216495 24.44° C 34% 1026.2 hPa 0 mm - 129 W/m² -

* Rain latest hour (hover to see other rain measurements)
** Current wind speed in m/s (hover to see current wind gust speed)